Location: Country Club Park
(34.0503°N, 118.3212°W)
Time: 02:21:48
(UTC+00:00)

CZ-2C R/B - Pass Details

Date: 26 June 2022
Orbit: 667 x 784 km, 98.3° (Epoch: 17 August)

Event Time Altitude Azimuth Distance (km) Brightness Sun altitude
Rises 12:08:15 0° 359° (N) 3,056 6.1 -7.1°
Reaches altitude 10° 12:10:46 10° 347° (NNW) 2,123 5.1 -6.6°
Maximum altitude 12:14:38 27° 290° (WNW) 1,284 3.4 -6.0°
Drops below altitude 10° 12:18:27 10° 233° (SW) 2,087 4.1 -5.3°
Enters shadow 12:19:29 - 227° (SW) 2,454 4.5 -5.1°
